Location: Unspecified
(52.4292°N, 19.3359°E)
Time: 01:22:29
(UTC+02:00)

Vanguard 1 Rocket - Pass Details

Date: 24 May 2024
Orbit: 649 x 4221 km, 34.3° (Epoch: 13 June)

Event Time Altitude Azimuth Distance (km) Brightness Sun altitude
Rises 11:28:11 0° 248° (WSW) 7,801 12.1 55.6°
Reaches altitude 10° 11:34:48 10° 241° (WSW) 6,273 11.8 56.1°
Maximum altitude 11:49:24 33° 187° (S) 3,235 11.4 57.0°
Drops below altitude 10° 11:57:58 10° 127° (SE) 3,654 11.1 57.5°
Sets 12:00:40 0° 117° (ESE) 4,278 11.2 57.6°
